Hastings, NE

1:31 AM CDT on June 25, 2018 (GMT -0500)
Hastings Municipal

Weather History for KHSI - September, 2017

Change the Weather History Date:

Thursday, September 14, 2017

  Actual Average Record
Temperature  
Mean Temperature 79 °F 66 °F  
Max Temperature 94 °F 78 °F 99 °F (1939)
Min Temperature 63 °F 55 °F 36 °F (1961)
Degree Days  
Heating Degree Days 0 2  
Month to date heating degree days 12 19  
Since 1 July heating degree days 16 25  
Cooling Degree Days 14 4  
Month to date cooling degree days 85 72  
Year to date cooling degree days 1042 1025  
Growing Degree Days 28 (Base 50)    
Moisture  
Dew Point 53 °F    
Average Humidity 47    
Maximum Humidity 67    
Minimum Humidity 26    
Precipitation  
Precipitation T in 0.08 in 3.65 in (2001)
Month to date precipitation 0.09 1.29  
Year to date precipitation 23.53 21.95  
Snow  
Snow 0.00 in 0.00 in - ()
Month to date snowfall 0.0 0.0  
Since 1 July snowfall 0.0 0.0  
Since 1 September snowfall 0.0 0.0  
Snow Depth 0.00 in    
Sea Level Pressure  
Sea Level Pressure 29.67 in    
Wind  
Wind Speed 10 mph (South)    
Max Wind Speed 18 mph    
Max Gust Speed 26 mph    
Visibility 10 miles    
Events Thunderstorm    
T = Trace of Precipitation, MM = Missing Value Source: NWS Daily Summary

Daily Weather History Graph

Daily Weather History Graph

Search for Another Location

Airport or City:

Astronomy

Sep. 14, 2017 Rise Set
Actual Time 7:13 AM CDT 7:43 PM CDT
Civil Twilight 6:46 AM CDT 8:11 PM CDT
Nautical Twilight 6:13 AM CDT 8:43 PM CDT
Astronomical Twilight 5:40 AM CDT 9:16 PM CDT
Moon 1:10 AM CDT (9/14) 4:03 PM CDT (9/14)
Length of Visible Light 13h 24m
Length of Day
12h 30m
Waning Crescent, 34% of the Moon is Illuminated
Sep 14
Waning Crescent
Sep 20
New
Sep 27
First Quarter
Oct 5
Full
Oct 12
Last Quarter

Hourly Weather History & Observations

Time (CDT) Temp. Heat Index Dew Point Humidity Pressure Visibility Wind Dir Wind Speed Gust Speed Precip Events Conditions
12:24 AM 71.1 °F - 52.0 °F 51% 29.75 in 10.0 mi ESE 6.9 mph - N/A Thunderstorm Partly Cloudy
12:53 AM 73.0 °F - 50.0 °F 44% 29.68 in 10.0 mi SE 10.4 mph - N/A   Clear
1:53 AM 72.0 °F - 50.0 °F 46% 29.67 in 10.0 mi South 11.5 mph - N/A   Clear
2:53 AM 69.1 °F - 51.1 °F 53% 29.65 in 10.0 mi South 8.1 mph - N/A   Clear
3:53 AM 66.0 °F - 51.1 °F 59% 29.66 in 10.0 mi South 10.4 mph - N/A   Clear
4:53 AM 66.0 °F - 51.1 °F 59% 29.66 in 10.0 mi South 10.4 mph - N/A   Clear
5:53 AM 63.0 °F - 51.1 °F 65% 29.67 in 10.0 mi South 8.1 mph - N/A   Clear
6:53 AM 63.0 °F - 48.9 °F 60% 29.67 in 10.0 mi South 11.5 mph - N/A   Clear
7:53 AM 64.0 °F - 48.9 °F 58% 29.68 in 10.0 mi South 9.2 mph - N/A   Clear
8:53 AM 68.0 °F - 52.0 °F 56% 29.69 in 10.0 mi SSW 8.1 mph - N/A   Clear
9:53 AM 69.1 °F - 53.1 °F 57% 29.70 in 10.0 mi SSW 8.1 mph - 0.00 in   Clear
10:53 AM 77.0 °F - 55.0 °F 47% 29.70 in 10.0 mi SSW 13.8 mph 19.6 mph N/A   Clear
11:53 AM 82.9 °F 82.1 °F 55.9 °F 39% 29.69 in 10.0 mi SSW 13.8 mph - N/A   Clear
12:53 PM 88.0 °F 86.5 °F 55.9 °F 34% 29.68 in 10.0 mi SSW 13.8 mph 21.9 mph N/A   Clear
1:53 PM 90.0 °F 88.1 °F 55.9 °F 31% 29.67 in 10.0 mi SSW 12.7 mph - N/A   Clear
2:53 PM 91.9 °F 90.6 °F 57.0 °F 31% 29.65 in 10.0 mi South 16.1 mph 23.0 mph N/A   Clear
3:53 PM 93.0 °F 90.8 °F 54.0 °F 27% 29.65 in 10.0 mi South 12.7 mph - N/A   Clear
4:53 PM 93.9 °F 91.4 °F 53.1 °F 25% 29.64 in 10.0 mi South 11.5 mph 19.6 mph N/A   Clear
5:53 PM 93.9 °F 91.4 °F 53.1 °F 25% 29.64 in 10.0 mi SSW 9.2 mph - N/A   Clear
6:53 PM 91.0 °F 89.2 °F 55.9 °F 30% 29.64 in 10.0 mi South 4.6 mph - N/A   Clear
7:53 PM 88.0 °F 85.9 °F 54.0 °F 31% 29.65 in 10.0 mi SSE 6.9 mph - N/A   Clear
8:53 PM 84.0 °F 82.5 °F 53.1 °F 34% 29.66 in 10.0 mi SSE 5.8 mph - N/A   Clear
9:53 PM 80.1 °F 79.9 °F 53.1 °F 39% 29.67 in 10.0 mi SSE 8.1 mph - N/A   Clear
10:53 PM 77.0 °F - 54.0 °F 45% 29.68 in 10.0 mi SSE 8.1 mph - N/A   Clear
11:53 PM 75.9 °F - 53.1 °F 45% 29.67 in 10.0 mi South 10.4 mph - N/A   Clear